{"data":{"norad_id":63879,"intl_designator":"2025-094R","name":"STARLINK-33812","alt_names":[],"object_type":"PAYLOAD","status":"ACTIVE","operator":null,"country":"US","launch_date":"2025-05-10","launch_site_code":"AFWTR","launch_vehicle":null,"mission":null,"orbit_class":"UNKNOWN","rcs_meters":null,"size_class":null,"mass_kg":null,"dimensions":null,"purposes":["comms"],"wikipedia_slug":null,"has_3d_model":false,"image_url":null,"decayed_at":null,"tle_current":{"epoch":"2026-05-25T03:10:53.792256Z","epoch_age_seconds":53862,"freshness":"FRESH","line1":"1 63879U 25094R   26145.13256704  .00003256  00000+0  28051-3 0  9993","line2":"2 63879  70.0022  41.7119 0002566 269.4363  90.6502 14.98337849 58653","mean_motion":14.98337849,"eccentricity":0.0002566,"inclination_deg":70.0022,"raan_deg":41.7119,"arg_perigee_deg":269.4363,"mean_anomaly_deg":90.6502,"bstar":0.00028051,"rev_number":5865,"period_min":96.106495671925,"perigee_km":570.24820539779,"apogee_km":573.81503193289,"semimajor_km":6950.1686186653,"source":"CELESTRAK","updated_at":"2026-05-25T13:38:20.172133Z"}}}